This demonstration page uses our WeatherBlox Daily Observations layout. Learn more.

Left ArrowRight Arrow

36.17497, -115.13722

Hourly Observations for January 28, 2019

Temp ( °F °C ) Dew Point ( °F °C ) Humidity (%) Winds ( mph kmh ) Pressure ( in mb ) Visibility ( mi km ) Precip ( " mm )
12:53 am 00:53 Clear 53 11.7 31 -0.6 43 43 NNW 13 20 30.09 1019 10 16.0934 N/A
1:53 am 01:53 Clear 50 10 31 -0.6 48 48 WNW 10 17 30.09 1019 10 16.0934 N/A
2:53 am 02:53 Clear 53 11.7 31 -0.6 43 43 NNW 14 22 30.08 1019 10 16.0934 N/A
3:53 am 03:53 Clear 51 10.6 31 -0.6 46 46 NNW 7 11 30.08 1019 10 16.0934 N/A
4:53 am 04:53 Clear 47 8.3 31 -0.6 54 54 Calm 30.1 1019 10 16.0934 N/A
5:53 am 05:53 Clear 48 8.9 31 -0.6 52 52 NW 8 13 30.11 1020 10 16.0934 N/A
6:53 am 06:53 Sunny 47 8.3 30 -1.1 52 52 Calm 30.14 1021 10 16.0934 N/A
7:53 am 07:53 Sunny 48 8.9 31 -0.6 52 52 Calm 30.16 1021 10 16.0934 N/A
8:53 am 08:53 Sunny 52 11.1 32 0 47 47 SE 5 7 30.17 1022 10 16.0934 N/A
9:53 am 09:53 Sunny 58 14.4 31 -0.6 36 36 Calm 30.16 1021 10 16.0934 N/A
10:53 am 10:53 Sunny 61 16.1 29 -1.7 30 30 ESE 7 11 30.15 1021 10 16.0934 N/A
11:53 am 11:53 Sunny 65 18.3 27 -2.8 24 24 ESE 8 13 30.13 1020 10 16.0934 N/A
12:53 pm 12:53 Sunny 67 19.4 27 -2.8 22 22 SE 6 9 30.1 1019 10 16.0934 N/A
1:53 pm 13:53 Sunny 69 20.6 25 -3.9 19 19 E 8 13 30.08 1019 10 16.0934 N/A
2:53 pm 14:53 Sunny 67 19.4 26 -3.3 21 21 ESE 7 11 30.09 1019 10 16.0934 N/A
3:53 pm 15:53 Sunny 66 18.9 27 -2.8 23 23 ESE 3 6 30.09 1019 10 16.0934 N/A
4:53 pm 16:53 Sunny 64 17.8 27 -2.8 25 25 ESE 7 11 30.09 1019 10 16.0934 N/A
5:53 pm 17:53 Clear 63 17.2 27 -2.8 26 26 E 6 9 30.11 1020 10 16.0934 N/A
6:53 pm 18:53 Clear 62 16.7 27 -2.8 26 26 E 12 19 30.11 1020 10 16.0934 N/A
7:53 pm 19:53 Mostly Clear 61 16.1 28 -2.2 29 29 E 12 19 30.11 1020 10 16.0934 N/A
8:53 pm 20:53 Clear 58 14.4 29 -1.7 33 33 SW 6 9 30.11 1020 10 16.0934 N/A
9:53 pm 21:53 Clear 58 14.4 28 -2.2 32 32 SW 9 15 30.11 1020 10 16.0934 N/A
10:53 pm 22:53 Clear 56 13.3 29 -1.7 36 36 SSW 7 11 30.1 1019 10 16.0934 N/A
11:53 pm 23:53 Clear 55 12.8 29 -1.7 37 37 S 6 9 30.1 1019 10 16.0934 N/A

Powered by AerisWeather